Orbital Elements at Epoch 2459200.5 (2020-Dec-17.0) TDB
Reference: JPL 19 (heliocentric ecliptic J2000)
Element | Value | Uncertainty (1-sigma) | Units |
e | .2210272952636751 | 2.8864e-08 | |
a | 2.447566347996984 | 8.0721e-09 | au |
q | 1.90658737812082 | 7.311e-08 | au |
i | 1.913191536820496 | 4.7432e-06 | deg |
node | 204.3017391134629 | 9.1473e-05 | deg |
peri | 85.14736091554136 | 9.2266e-05 | deg |
M | 17.10872025166853 | 1.1294e-05 | deg |
tp | 2459134.031609711227 (2020-Oct-11.53160971) | 4.377e-05 | TDB |
period | 1398.621296740456 3.83 | 6.919e-06 1.894e-08 | d yr |
n | .2573963379786899 | 1.2734e-09 | deg/d |
Q | 2.988545317873149 | 9.8563e-09 | au |
|
| | Orbit Determination Parameters
Additional Information
|